Change the Weather History Date:

Monday, February 25, 2013

  Actual Average Record
Temperature  
Mean Temperature 36 °F -  
Max Temperature 43 °F 41 °F 69 °F (1976)
Min Temperature 28 °F 23 °F 5 °F (2015)
Degree Days  
Heating Degree Days 30    
Moisture  
Dew Point 28 °F    
Average Humidity 75    
Maximum Humidity 89    
Minimum Humidity 49    
Precipitation  
Precipitation 0.01 in - - ()
Sea Level Pressure  
Sea Level Pressure 30.05 in    
Wind  
Wind Speed 5 mph (NNW)    
Max Wind Speed 8 mph    
Max Gust Speed -    
Visibility 9 miles    
Events Snow    
Averages and records for this station are not official NWS values.
T = Trace of Precipitation, MM = Missing Value Source: NWS Daily Summary

Daily Weather History Graph

Daily Weather History Graph

Search for Another Location

Airport or City:

Trip Planner

Search our weather history database for the weather conditions in past years. The results will help you decide how hot, cold, wet, or windy it might be!

Date:

Astronomy

Feb. 25, 2013 Rise Set
Actual Time 6:24 AM EST 5:29 PM EST
Civil Twilight 5:56 AM EST 5:57 PM EST
Nautical Twilight 5:24 AM EST 6:30 PM EST
Astronomical Twilight 4:52 AM EST 7:02 PM EST
Moon 5:40 PM EST (2/25) 5:53 AM EST (2/25)
Length of Visible Light 12h 01m
Length of Day
11h 04m
Full, 100% of the Moon is Illuminated
Feb 25
Full
Feb 25
Full
Mar 4
Last Quarter
Mar 11
New
Mar 19
First Quarter

Hourly Weather History & Observations

Time (EST) Temp. Windchill Dew Point Humidity Pressure Visibility Wind Dir Wind Speed Gust Speed Precip Events Conditions
12:11 AM 33.1 °F 28.7 °F 28.9 °F 85% 29.87 in 4.0 mi NNW 4.6 mph - 0.01 in Snow Light Snow
12:52 AM 33.1 °F 27.7 °F 28.9 °F 85% 29.89 in 7.0 mi NNW 5.8 mph - 0.01 in Snow Light Snow
1:29 AM 33.1 °F 28.7 °F 28.9 °F 85% 29.90 in 2.5 mi NW 4.6 mph - 0.00 in Snow Light Snow
1:47 AM 33.8 °F 29.6 °F 28.4 °F 81% 29.91 in 4.0 mi Variable 4.6 mph - 0.00 in Snow Light Snow
1:52 AM 33.1 °F 28.7 °F 28.9 °F 85% 29.91 in 4.0 mi NNW 4.6 mph - 0.00 in Snow Light Snow
2:19 AM 32.0 °F 25.6 °F 28.9 °F 88% 29.91 in 7.0 mi NNW 6.9 mph - 0.00 in   Overcast
2:31 AM 33.1 °F 26.1 °F 28.9 °F 85% 29.91 in 8.0 mi NW 8.1 mph - 0.00 in   Overcast
2:39 AM 32.0 °F 24.8 °F 28.9 °F 88% 29.91 in 10.0 mi NNW 8.1 mph - 0.00 in   Overcast
2:52 AM 32.0 °F 25.6 °F 28.0 °F 85% 29.92 in 10.0 mi NW 6.9 mph - 0.00 in   Overcast
3:47 AM 32.0 °F 26.4 °F 28.4 °F 87% 29.94 in 10.0 mi NNW 5.8 mph - N/A   Overcast
3:52 AM 32.0 °F 24.8 °F 28.0 °F 85% 29.94 in 10.0 mi NNW 8.1 mph - N/A   Overcast
4:13 AM 32.0 °F 26.4 °F 28.0 °F 85% 29.94 in 10.0 mi North 5.8 mph - N/A   Overcast
4:52 AM 32.0 °F 27.5 °F 28.0 °F 85% 29.97 in 10.0 mi NNW 4.6 mph - N/A   Overcast
5:47 AM 30.2 °F 25.4 °F 26.6 °F 86% 29.99 in 10.0 mi NNW 4.6 mph - N/A   Overcast
5:52 AM 30.9 °F 27.5 °F 27.0 °F 85% 29.99 in 10.0 mi NNW 3.5 mph - N/A   Overcast
6:01 AM 30.9 °F 26.2 °F 27.0 °F 85% 29.99 in 10.0 mi NNW 4.6 mph - N/A   Overcast
6:33 AM 30.0 °F - 26.1 °F 85% 30.00 in 10.0 mi Calm Calm - N/A   Scattered Clouds
6:52 AM 28.9 °F 25.2 °F 26.1 °F 89% 30.01 in 9.0 mi NW 3.5 mph - N/A   Clear
7:52 AM 32.0 °F 27.5 °F 27.0 °F 82% 30.04 in 10.0 mi North 4.6 mph - N/A   Mostly Cloudy
8:52 AM 35.1 °F 30.1 °F 28.0 °F 76% 30.06 in 10.0 mi NNW 5.8 mph - N/A   Clear
9:52 AM 37.0 °F 31.6 °F 28.0 °F 70% 30.07 in 10.0 mi North 6.9 mph - N/A   Partly Cloudy
10:52 AM 39.0 °F 34.0 °F 28.0 °F 65% 30.09 in 10.0 mi NNW 6.9 mph - N/A   Scattered Clouds
11:14 AM 39.9 °F 35.1 °F 27.0 °F 60% 30.09 in 10.0 mi North 6.9 mph - N/A   Mostly Cloudy
11:36 AM 39.9 °F 37.8 °F 26.1 °F 58% 30.09 in 10.0 mi Variable 3.5 mph - N/A   Scattered Clouds
11:52 AM 41.0 °F 37.1 °F 27.0 °F 57% 30.09 in 10.0 mi Variable 5.8 mph - N/A   Scattered Clouds
12:16 PM 41.0 °F 37.1 °F 26.1 °F 55% 30.09 in 10.0 mi Variable 5.8 mph - N/A   Mostly Cloudy
12:31 PM 42.1 °F 39.2 °F 25.0 °F 51% 30.10 in 10.0 mi Variable 4.6 mph - N/A   Scattered Clouds
12:52 PM 42.1 °F 37.7 °F 26.1 °F 53% 30.10 in 10.0 mi NNW 6.9 mph - N/A   Mostly Cloudy
1:52 PM 43.0 °F 38.2 °F 25.0 °F 49% 30.12 in 10.0 mi NNW 8.1 mph - N/A   Overcast
2:52 PM 43.0 °F 38.8 °F 25.0 °F 49% 30.13 in 10.0 mi NNW 6.9 mph - N/A   Mostly Cloudy
3:52 PM 41.0 °F 37.1 °F 26.1 °F 55% 30.15 in 10.0 mi Variable 5.8 mph - N/A   Overcast
4:52 PM 39.9 °F 36.7 °F 26.1 °F 58% 30.17 in 10.0 mi NNW 4.6 mph - N/A   Scattered Clouds
5:52 PM 33.1 °F - 27.0 °F 78% 30.18 in 10.0 mi Calm Calm - N/A   Mostly Cloudy
6:52 PM 35.1 °F - 28.0 °F 76% 30.19 in 10.0 mi Calm Calm - N/A   Overcast
7:22 PM 35.1 °F 30.1 °F 28.9 °F 78% 30.21 in 10.0 mi ESE 5.8 mph - N/A   Overcast
7:52 PM 35.1 °F - 28.0 °F 76% 30.22 in 10.0 mi Calm Calm - N/A   Overcast
8:27 PM 35.1 °F - 28.9 °F 78% 30.23 in 10.0 mi Calm Calm - N/A   Overcast
8:52 PM 35.1 °F 32.2 °F 28.9 °F 78% 30.23 in 10.0 mi SE 3.5 mph - N/A   Overcast
9:52 PM 35.1 °F - 28.9 °F 78% 30.22 in 10.0 mi Calm Calm - N/A   Overcast
10:52 PM 35.1 °F - 28.9 °F 78% 30.23 in 10.0 mi Calm Calm - N/A   Overcast
11:52 PM 35.1 °F - 28.9 °F 78% 30.25 in 10.0 mi Calm Calm - N/A   Overcast